Current Version              Previous Version:    01  02  03  04  05  06  07  08  09  10  11  12  13  14  15  16  17  18  19  20  21  22  23  24  25  26  27  28  29  30  
   31  32  33  34  35  36  37  38  39  40  41  42  43  44  45  46  47  48  49  50  51  52  53  54  55  56  57  58  59  60  

[Printable]
496
ASUS44 KFWD 210103
RWRTX
NORTH TEXAS HOURLY WEATHER ROUNDUP
NATIONAL WEATHER SERVICE FORT WORTH TX
700 PM CST SAT DEC 20 2014

NOTE: "FAIR" INDICATES FEW OR NO CLOUDS BELOW 12,000 FEET WITH NO
SIGNIFICANT WEATHER AND/OR OBSTRUCTIONS TO VISIBILITY.

TXZ118-119-210200-
DALLAS/FORT WORTH METROPLEX

CITY           SKY/WX    TMP DP  RH WIND       PRES   REMARKS
DFW AIRPORT    MOCLDY    47  43  86 NE6       30.17S
DALLAS LOVE    CLOUDY    48  42  80 E5        30.18S
FTW MEACHAM    CLOUDY    48  43  82 E5        30.17R HAZE
DAL-EXECUTIVE  CLOUDY    49  42  77 E6        30.17S
FTW-ALLIANCE   CLOUDY    45  43  93 E8        30.17S
FTW-SPINKS     CLOUDY    46  45  93 E5        30.18S FOG
ARLINGTON      CLOUDY    48  42  80 E6        30.18R
ADDISON        CLOUDY    46  43  87 E3        30.18S
MESQUITE       CLOUDY    46  45  93 CALM      30.20R
LANCASTER      CLOUDY    47  43  85 E5        30.20R
$$

TXZ091>094-102>105-117-120-121-131>134-210200-
NORTH CENTRAL TEXAS

CITY           SKY/WX    TMP DP  RH WIND       PRES   REMARKS
SHRMAN/DENISON CLOUDY    46  45  96 CALM      30.19F
BRIDGEPORT     CLOUDY    46  41  80 CALM      30.18S
DECATUR        CLOUDY    45  43  94 E5        30.16S
DENTON         CLOUDY    46  42  86 E8        30.18S
MCKINNEY       CLOUDY    46  43  89 CALM      30.19S
ROCKWALL       CLOUDY    46  45  93 CALM      30.18R
TERRELL        CLOUDY    49  45  86 NE5       30.19S
WAXAHACHIE     CLOUDY    46  45  94 E5        30.19R
CLEBURNE       CLOUDY    46  46 100 E5        30.18R
GRANBURY       CLOUDY    49  43  78 E3        30.18R
$$

TXZ083>090-098>101-113>116-127>130-139>142-154-155-210200-
WESTERN NORTH TEXAS

CITY           SKY/WX    TMP DP  RH WIND       PRES   REMARKS
WICHITA FALLS  CLOUDY    44  40  85 SE8       30.13F WCI  39
WF-KICKAPOO    CLOUDY    45  40  84 SE6       30.15S
VERNON         CLEAR     44  38  79 SE7       30.12R WCI  40
ABILENE        CLOUDY    50  41  71 SE8       30.12R
BRECKENRIDGE   CLOUDY    50  40  69 SE6       30.13R
MINERAL WELLS  CLOUDY    47  40  76 SE3       30.14R
STEPHENVILLE   CLOUDY    47  39  75 CALM      30.17S
COMANCHE       CLOUDY    47  42  83 SE7       30.15R
COLEMAN        CLOUDY    50  45  80 E7        30.12S
$$

TXZ143>147-156>162-174-175-210200-
CENTRAL TEXAS

CITY           SKY/WX    TMP DP  RH WIND       PRES   REMARKS
WACO           CLOUDY    49  45  86 E6        30.18R
WACO-TSTC      CLOUDY    48  46  93 E5        30.19R
WACO-MCGREGOR  CLOUDY    50  43  76 NE5       30.19R
CORSICANA      CLOUDY    50  45  83 NE3       30.20R
MEXIA          CLOUDY    49  46  88 CALM      30.18R
HEARNE         CLOUDY    51  46  83 CALM      30.19R
TEMPLE         CLOUDY    48  43  81 E8        30.17R
KILLEEN        CLOUDY    49  45  85 E8        30.17R
KILLEEN-SKYLRK CLOUDY    50  39  66 E7        30.16R
FORT HOOD      CLOUDY    49  45  85 E7        30.17R
GATESVILLE     CLOUDY    48  45  87 E6        30.19R
HAMILTON       CLOUDY    49  42  77 S8        30.16R
$$

TXZ095>097-106>112-122>126-135>138-148>153-164>167-210200-
EAST TEXAS

CITY           SKY/WX    TMP DP  RH WIND       PRES   REMARKS
PARIS          CLOUDY    46  43  87 CALM      30.21R
SULPHUR SPRNGS CLOUDY    48  44  86 CALM      30.22S
MOUNT PLEASANT CLOUDY    48  45  88 CALM      30.23R
MINEOLA        MOCLDY    48  46  93 CALM      30.21R FOG
TYLER          MOCLDY    49  42  77 CALM      30.19R
LONGVIEW       CLEAR     44  41  89 CALM      30.19R
MARSHALL       CLEAR     43  41  92 CALM      30.23R
PALESTINE      CLOUDY    49  44  83 N3        30.21R
JACKSONVILLE   MOCLDY    47  44  88 N3        30.19S
HENDERSON      CLEAR     43  43  97 CALM      30.21R
NACOGDOCHES    CLEAR     46  41  81 E5        30.20R
LUFKIN         MOCLDY    52  44  74 NE3       30.18R
$$

SUPPLEMENTAL OBSERVATIONS (CENTRAL)

CITY           SKY/WX    TMP DP  RH WIND       PRES   REMARKS
$$

SUPPLEMENTAL OBSERVATIONS (WEST)

CITY           SKY/WX    TMP DP  RH WIND       PRES   REMARKS
$$

SUPPLEMENTAL OBSERVATIONS (EAST)

CITY           SKY/WX    TMP DP  RH WIND       PRES   REMARKS
$$

SUPPLEMENTAL OBSERVATIONS ARE A COLLECTION OF AUTOMATED INSTRUMENTS
THAT ARE MAINTAINED BY A VARIETY OF FEDERAL AND STATE AGENCIES.
CERTAIN ELEMENTS...SUCH AS HUMIDITY VALUES AND SUSTAINED WIND
SPEEDS...MAY BE APPROXIMATED.